Location: Azul
(36.7830°S, 59.8500°W)
Time: 00:54:50
(UTC-03:00)

STARS - Pass Details

Date: 23 October 2021
Orbit: 623 x 638 km, 98.2° (Epoch: 30 November)

Event Time Altitude Azimuth Distance (km) Brightness Sun altitude
Exits shadow 22:59:49 20° 224° (SW) 1,481 ? -35.6°
Drops below altitude 10° 23:01:24 10° 211° (SSW) 2,032 ? -35.8°
Sets 23:03:47 0° 202° (SSW) 2,946 ? -36.0°
